logo tempoitalia

Diretta Meteo Caumont, Francialunedì 31 agosto ore 07:00

Mappa
Sereno 17 °C Sereno 24 Ore: T.min 17 T.max 34
Ponente Nord Km/h 1.8 Punto di rugiada: 15 °C Umidità: 88% Visibilità: 10 Km
Il sole sorge alle: 07:02 Il sole tramonta alle: 20:18
31 Agosto 2026 07:00 tempo osservato: Sereno Sereno 17 88 1017 vento: Nord N 1.8
31 Agosto 2026 06:30 tempo osservato: Sereno Sereno 17 88 1017 vento: Nord N 3.7
31 Agosto 2026 06:00 tempo osservato: Sereno Sereno 18 82 1017 vento: Nord N 0
31 Agosto 2026 05:30 tempo osservato: Sereno Sereno 18 88 1017 vento: Nord N 0
31 Agosto 2026 05:00 tempo osservato: Sereno Sereno 18 88 1017 vento: Nord N 0
31 Agosto 2026 04:30 tempo osservato: Sereno Sereno 18 88 1017 vento: Nord N 5.5
31 Agosto 2026 04:00 tempo osservato: Sereno Sereno 18 88 1016 vento: Nord N 0
31 Agosto 2026 03:30 tempo osservato: Sereno Sereno 18 88 1016 vento: Nord N 3.7
31 Agosto 2026 03:00 tempo osservato: Sereno Sereno 19 82 1016 vento: Nord N 1.8
31 Agosto 2026 02:30 tempo osservato: Sereno Sereno 19 82 1016 vento: Nord N 3.7
31 Agosto 2026 02:00 tempo osservato: Sereno Sereno 20 77 1016 vento: Nord N 5.5
31 Agosto 2026 01:30 tempo osservato: Sereno Sereno 20 77 1017 vento: Nord N 3.7
31 Agosto 2026 01:00 tempo osservato: Sereno Sereno 21 73 1016 vento: Nord N 5.5
31 Agosto 2026 00:30 tempo osservato: Sereno Sereno 22 68 1016 vento: Nord N 3.7
31 Agosto 2026 00:00 tempo osservato: Sereno Sereno 23 64 1016 vento: Nord N 3.7
30 Agosto 2026 23:30 tempo osservato: Sereno Sereno 23 64 1016 vento: Nord E/SE 7.4
30 Agosto 2026 23:00 tempo osservato: Sereno Sereno 24 60 1016 vento: Nord E/SE 9.3
30 Agosto 2026 22:30 tempo osservato: Sereno Sereno 23 68 1016 vento: Nord S 9.3
30 Agosto 2026 22:00 tempo osservato: Sereno Sereno 24 60 1016 vento: Nord S 9.3
30 Agosto 2026 21:30 tempo osservato: Sereno Sereno 25 57 1015 vento: Nord S 9.3
30 Agosto 2026 21:00 tempo osservato: Sereno Sereno 27 47 1015 vento: Nord S/SO 9.3
30 Agosto 2026 20:30 tempo osservato: Sereno Sereno 28 42 1014 vento: Nord S/SO 7.4
30 Agosto 2026 20:00 tempo osservato: Sereno Sereno 29 37 1014 vento: Nord SO 14.8
30 Agosto 2026 19:30 tempo osservato: Sereno Sereno 30 37 1014 vento: Nord SO 20.3
30 Agosto 2026 19:00 tempo osservato: Sereno Sereno 32 31 1014 vento: Nord SO 16.7
30 Agosto 2026 18:30 tempo osservato: Sereno Sereno 33 29 1014 vento: Nord SO 22.2
30 Agosto 2026 18:00 tempo osservato: Sereno Sereno 33 31 1013 vento: Nord O/SO 18.5
30 Agosto 2026 17:30 tempo osservato: Sereno Sereno 34 30 1013 vento: Nord SO 16.7
30 Agosto 2026 17:00 tempo osservato: Sereno Sereno 34 28 1014 vento: Nord O/SO 9.3
30 Agosto 2026 16:30 tempo osservato: Sereno Sereno 34 28 1014 vento: Nord N 5.5
30 Agosto 2026 16:00 tempo osservato: Sereno Sereno 34 28 1014 vento: Nord N 5.5
30 Agosto 2026 15:30 tempo osservato: Sereno Sereno 34 28 1014 vento: Nord N 13
30 Agosto 2026 15:00 tempo osservato: Sereno Sereno 33 29 1015 vento: Nord O/NO 9.3
30 Agosto 2026 14:30 tempo osservato: Sereno Sereno 32 33 1015 vento: Nord N 7.4
30 Agosto 2026 14:00 tempo osservato: Sereno Sereno 32 33 1015 vento: Nord O 13
30 Agosto 2026 13:30 tempo osservato: Sereno Sereno 32 31 1015 vento: Nord NO 11.1
30 Agosto 2026 13:00 tempo osservato: Sereno Sereno 31 35 1015 vento: Nord NO 13
30 Agosto 2026 12:30 tempo osservato: Sereno Sereno 30 37 1016 vento: Nord N 13
30 Agosto 2026 12:00 tempo osservato: Sereno Sereno 29 39 1016 vento: Nord N/NO 9.3
30 Agosto 2026 11:30 tempo osservato: Sereno Sereno 28 45 1016 vento: Nord N/NO 11.1
30 Agosto 2026 11:00 tempo osservato: Sereno Sereno 27 47 1016 vento: Nord N 13
30 Agosto 2026 10:30 tempo osservato: Sereno Sereno 26 50 1016 vento: Nord N/NO 9.3
30 Agosto 2026 10:00 tempo osservato: Sereno Sereno 24 57 1016 vento: Nord N 5.5
30 Agosto 2026 09:30 tempo osservato: Sereno Sereno 23 60 1016 vento: Nord N 7.4
30 Agosto 2026 09:00 tempo osservato: Sereno Sereno 21 73 1016 vento: Nord N 7.4
30 Agosto 2026 08:30 tempo osservato: Sereno Sereno 19 82 1016 vento: Nord N 1.8
30 Agosto 2026 08:00 tempo osservato: Sereno Sereno 18 88 1016 vento: Nord S 7.4